[[[{"header":{"parameterUnit":"kt","parameterCategory":2,"dx":1,"dy":1,"la1":30.253999710083008,"la2":30.299108505249023,"lo1":-89.0895004272461,"lo2":-89.04439544677734,"nx":28,"ny":28,"refTime":"2022-09-21T21:00:00:Z","depth":"0","parameterNumber":2,"parameterNumberName":"U-component_of_CURRENTS"},"data":[0.2906,0.2989,0.3083,0.314,0.3226,0.3215,0.3257,0.3367,0.3555,0.3839,0.4147,0.4505,0.5262,0.6254,0.6867,0.6896,0.6594,0.6412,0.6283,0.6707,0.6686,0.6665,0.6637,0.6851,0.685,0.5996,0.5988,0.5982,0.2961,0.3075,0.3199,0.3354,0.3396,0.3517,0.3683,0.3719,0.3808,0.4086,0.429,0.4885,0.5476,0.6037,0.6676,0.6806,0.6709,0.6773,0.6453,0.6404,0.6829,0.682,0.7078,0.7078,0.7078,0.7077,0.7077,0.7077,0.3059,0.3134,0.3276,0.3405,0.3532,0.3659,0.3728,0.3908,0.406,0.4224,0.4504,0.4748,0.5331,0.5908,0.6181,0.6639,0.6251,0.67,0.6447,0.6164,0.6076,0.637,0.6631,0.663,0.6629,0.6628,0.6627,0,0.315,0.3237,0.3344,0.3481,0.3607,0.3769,0.3943,0.4014,0.4264,0.4395,0.4598,0.4767,0.5213,0.5574,0.5956,0.6149,0.6094,0.6305,0.6383,0.6256,0.5903,0.587,0.6151,0.6391,0.6389,0.6387,0.6386,0.6385,0.3291,0.3296,0.3509,0.3591,0.3672,0.384,0.3948,0.4169,0.4282,0.4547,0.4604,0.4864,0.5046,0.5468,0.5748,0.6033,0.5915,0.624,0.6218,0.6248,0.6048,0.5754,0.5698,0.6358,0.6361,0.6364,0.6366,0,0.3414,0.3461,0.3538,0.3726,0.3787,0.3885,0.4138,0.4236,0.4397,0.4547,0.4601,0.4816,0.5055,0.5252,0.5549,0.5653,0.5831,0.596,0.5958,0.6004,0.6197,0.5983,0.5886,0.5837,0.6154,0.6156,0.6158,0,0.3574,0.3601,0.369,0.3741,0.3856,0.4006,0.4154,0.4281,0.4454,0.4564,0.4699,0.4816,0.503,0.5204,0.5347,0.5597,0.5615,0.5756,0.5805,0.5844,0.5847,0.595,0.5746,0.5785,0.5784,0.5782,0.5781,0,0.3692,0.3705,0.3731,0.3804,0.3982,0.4052,0.4198,0.4367,0.4463,0.4626,0.4702,0.4861,0.4973,0.5142,0.5318,0.5295,0.5591,0.5592,0.5733,0.5734,0.5834,0.5838,0.6093,0.578,0.5779,0.5779,0.5778,0,0.379,0.3782,0.3764,0.3946,0.3976,0.4053,0.4304,0.4387,0.4538,0.4609,0.472,0.4804,0.4951,0.4978,0.5221,0.5157,0.5277,0.5385,0.5395,0.5428,0.5437,0.5625,0.579,0.5873,0.5483,0.548,0.5478,0,0.4001,0.388,0.3912,0.3974,0.3993,0.419,0.4266,0.4388,0.4502,0.4604,0.4712,0.481,0.4831,0.4903,0.5002,0.5144,0.5243,0.5137,0.5355,0.536,0.5375,0.5511,0.5582,0.5741,0.5446,0.5449,0.5451,0,0.4125,0.4076,0.4062,0.4113,0.4223,0.4266,0.4333,0.444,0.4504,0.4588,0.4671,0.4774,0.4833,0.4872,0.4942,0.5045,0.5187,0.5072,0.5078,0.5121,0.5422,0.5459,0.5484,0.5252,0.5256,0.5259,0.5425,0,0.4272,0.4252,0.4196,0.4179,0.4235,0.4261,0.4359,0.4419,0.4504,0.456,0.4663,0.4741,0.4823,0.4868,0.4885,0.5008,0.5011,0.5035,0.5012,0.5084,0.5145,0.5166,0.4915,0.4914,0.4914,0.4913,0,0,0.4463,0.4377,0.4379,0.4302,0.4365,0.4463,0.4453,0.449,0.4544,0.458,0.4597,0.4732,0.4764,0.4857,0.489,0.4903,0.4957,0.4875,0.5039,0.5053,0.5066,0.5128,0.5148,0.4912,0.4912,0.4912,0.4912,0,0.4472,0.4526,0.4404,0.444,0.4424,0.4481,0.448,0.4507,0.454,0.4582,0.4642,0.4712,0.4743,0.4809,0.4837,0.4889,0.4916,0.4907,0.4914,0.5032,0.5046,0.5059,0.5122,0.5141,0.491,0.491,0.4911,0,0.4603,0.4562,0.4551,0.453,0.4529,0.4531,0.4556,0.4535,0.4567,0.4598,0.4637,0.4685,0.4725,0.4774,0.4792,0.4779,0.4883,0.4821,0.4825,0.4804,0.4924,0.494,0.4955,0.4767,0.4766,0.4766,0,0,0.4602,0.4547,0.4571,0.4541,0.4534,0.4558,0.4548,0.4576,0.4591,0.4602,0.4634,0.4673,0.4714,0.4728,0.4755,0.4771,0.4807,0.4803,0.481,0.4815,0.4797,0.4917,0.4933,0.4763,0.4763,0.4763,0,0,0.461,0.4582,0.4628,0.4583,0.46,0.4596,0.4558,0.4593,0.4615,0.4623,0.4653,0.4659,0.47,0.4702,0.4672,0.4757,0.4732,0.4737,0.4748,0.4756,0.4763,0.4737,0.4674,0,0,0,0,0,0.4633,0.4581,0.4624,0.462,0.461,0.4588,0.4585,0.4599,0.4619,0.4614,0.4653,0.4649,0.4715,0.4688,0.4685,0.4718,0.4734,0.4739,0.4744,0.4763,0.4772,0.478,0,0,0,0,0,0,0.4631,0.4629,0.4624,0.4618,0.4615,0.4589,0.4622,0.4626,0.4621,0.4627,0.4644,0.4649,0.4665,0.4688,0.4686,0.4718,0.4675,0.4736,0.4741,0.4745,0.4766,0.4774,0.478,0,0,0,0,0,0.463,0.4628,0.4613,0.4618,0.4615,0.4622,0.4625,0.4628,0.4633,0.4641,0.4647,0.4644,0.4663,0.4664,0.4686,0.472,0.4676,0.4676,0.4739,0.4743,0.4746,0.477,0,0,0,0,0,0,0.4629,0.4635,0.4613,0.4611,0.4635,0.4624,0.4626,0.4629,0.4649,0.4652,0.4642,0.4646,0.4662,0.4663,0.4663,0.4722,0.4677,0.4677,0.4676,0.4742,0.4745,0.4747,0,0,0,0,0,0,0.4636,0.4634,0.4612,0.4632,0.4634,0.4627,0.4628,0.4615,0.465,0.4651,0.4653,0.4643,0.4664,0.4662,0.4662,0.464,0.4678,0.4677,0.4677,0.4677,0.4744,0.4746,0,0,0,0,0,0,0.4635,0.4634,0.4633,0.4634,0.4636,0.4624,0.4616,0.461,0.465,0.465,0.4655,0.4657,0.4662,0.4663,0.4661,0.4638,0.4639,0.4678,0.4678,0.4677,0.4677,0,0,0,0,0,0,0,0.4634,0.4645,0.4615,0.4636,0.4637,0.4595,0.4596,0.4596,0.4651,0.4653,0.4655,0.4657,0.4682,0.4681,0.468,0.4637,0,0,0.4678,0.4678,0,0,0,0,0,0,0,0,0.4645,0.4645,0.4615,0.4614,0.4614,0.4595,0.4596,0.4596,0.4651,0.4653,0.4654,0.4656,0.4682,0.4681,0.4681,0,0,0,0,0,0,0,0,0,0,0,0,0,0,0,0.4615,0.4614,0,0.4595,0.4596,0.4596,0.4651,0.4653,0.4654,0.4655,0.4682,0.4681,0.4681,0,0,0,0,0,0,0,0,0,0,0,0,0,0,0,0,0,0,0,0,0,0,0,0,0,0,0,0,0,0,0,0,0,0,0,0,0,0,0,0,0,0,0,0,0,0,0,0,0,0,0,0,0,0,0,0,0,0,0,0,0,0,0,0,0,0,0,0,0]}],[{"header":{"parameterUnit":"kt","parameterCategory":2,"dx":1,"dy":1,"la1":30.253999710083008,"la2":30.299108505249023,"lo1":-89.0895004272461,"lo2":-89.04439544677734,"nx":28,"ny":28,"refTime":"2022-09-21T21:00:00:Z","depth":"0","parameterNumber":3,"parameterNumberName":"V-component_of_CURRENTS"},"data":[-0.2082,-0.2157,-0.22,-0.2022,-0.1951,-0.1762,-0.1673,-0.1572,-0.1495,-0.1116,-0.0878,-0.0758,-0.0646,-0.1357,-0.187,-0.215,-0.254,-0.2757,-0.2957,-0.2506,-0.2534,-0.256,-0.2511,-0.2291,-0.229,-0.3371,-0.3376,-0.338,-0.2108,-0.2197,-0.2236,-0.2257,-0.2161,-0.2214,-0.2207,-0.2091,-0.1881,-0.1799,-0.168,-0.1503,-0.1742,-0.21,-0.2426,-0.2645,-0.3114,-0.2784,-0.3073,-0.3196,-0.2953,-0.2915,-0.2779,-0.2779,-0.2779,-0.2779,-0.2779,-0.2779,-0.217,-0.2226,-0.2308,-0.2334,-0.2362,-0.2351,-0.2296,-0.2328,-0.2249,-0.2087,-0.2215,-0.2061,-0.227,-0.2602,-0.2893,-0.3144,-0.3366,-0.3143,-0.3075,-0.3414,-0.3514,-0.3302,-0.3288,-0.329,-0.3291,-0.3292,-0.3293,0,-0.2259,-0.2298,-0.2353,-0.2396,-0.2438,-0.2478,-0.2522,-0.2502,-0.2559,-0.2518,-0.248,-0.2476,-0.271,-0.28,-0.3067,-0.3218,-0.345,-0.3401,-0.3318,-0.3073,-0.337,-0.3519,-0.3352,-0.3292,-0.3293,-0.3294,-0.3295,-0.3296,-0.2376,-0.2361,-0.2444,-0.2476,-0.2504,-0.2541,-0.257,-0.2638,-0.2667,-0.27,-0.2701,-0.279,-0.2809,-0.3036,-0.3239,-0.3397,-0.3511,-0.343,-0.3446,-0.3335,-0.3297,-0.361,-0.3711,-0.3313,-0.331,-0.3309,-0.3307,0,-0.2443,-0.2488,-0.2496,-0.2565,-0.2577,-0.2587,-0.2679,-0.2694,-0.2734,-0.2751,-0.2766,-0.2869,-0.2968,-0.3121,-0.3283,-0.3384,-0.3531,-0.3544,-0.34,-0.3426,-0.3393,-0.333,-0.3601,-0.3716,-0.3583,-0.3583,-0.3583,0,-0.2561,-0.2546,-0.2589,-0.2615,-0.2621,-0.2703,-0.2725,-0.2764,-0.2819,-0.2822,-0.2915,-0.2943,-0.3109,-0.3199,-0.3311,-0.3433,-0.3434,-0.3542,-0.3586,-0.3487,-0.348,-0.3421,-0.3357,-0.357,-0.357,-0.357,-0.357,0,-0.263,-0.2619,-0.2634,-0.2683,-0.2771,-0.2778,-0.2847,-0.2909,-0.2925,-0.2968,-0.2988,-0.3056,-0.3125,-0.3208,-0.3361,-0.3378,-0.3475,-0.3534,-0.3589,-0.359,-0.3515,-0.3511,-0.3362,-0.357,-0.357,-0.357,-0.357,0,-0.2711,-0.2707,-0.2698,-0.2768,-0.2772,-0.2827,-0.2925,-0.2967,-0.3014,-0.3037,-0.3083,-0.3155,-0.3218,-0.3288,-0.3397,-0.3392,-0.3465,-0.3542,-0.3546,-0.3567,-0.3649,-0.3527,-0.348,-0.3389,-0.3615,-0.3615,-0.3615,0,-0.2828,-0.2774,-0.2818,-0.2842,-0.2844,-0.297,-0.3005,-0.3065,-0.3127,-0.315,-0.3223,-0.3285,-0.3351,-0.3397,-0.3427,-0.3547,-0.3552,-0.3551,-0.3646,-0.3648,-0.3632,-0.3608,-0.3493,-0.3488,-0.3618,-0.3617,-0.3617,0,-0.291,-0.2918,-0.2898,-0.2931,-0.3038,-0.3042,-0.3089,-0.3132,-0.314,-0.3217,-0.3223,-0.3358,-0.3384,-0.3445,-0.3531,-0.3559,-0.3561,-0.3609,-0.3613,-0.3584,-0.3606,-0.3612,-0.3611,-0.3615,-0.3614,-0.3614,-0.3619,0,-0.3026,-0.3031,-0.2978,-0.3026,-0.305,-0.3051,-0.3128,-0.3149,-0.3218,-0.3261,-0.3316,-0.3439,-0.352,-0.3565,-0.3637,-0.3651,-0.3664,-0.3717,-0.3714,-0.3701,-0.371,-0.3708,-0.3752,-0.3754,-0.3755,-0.3756,0,0,-0.3126,-0.3129,-0.3144,-0.3106,-0.3145,-0.3221,-0.321,-0.3236,-0.3306,-0.3308,-0.3363,-0.3517,-0.3599,-0.3671,-0.3692,-0.374,-0.3751,-0.3696,-0.3721,-0.3716,-0.3713,-0.3719,-0.3715,-0.3758,-0.3758,-0.3758,-0.3759,0,-0.3158,-0.3235,-0.3174,-0.32,-0.3196,-0.3248,-0.3237,-0.3259,-0.3278,-0.3347,-0.3449,-0.3519,-0.3619,-0.3691,-0.3744,-0.3753,-0.3766,-0.3773,-0.3694,-0.373,-0.3724,-0.3719,-0.3724,-0.372,-0.3761,-0.3761,-0.3761,0,-0.3267,-0.3284,-0.3298,-0.3319,-0.3313,-0.3321,-0.3345,-0.3307,-0.3343,-0.3444,-0.3497,-0.3576,-0.3677,-0.3734,-0.376,-0.3763,-0.3774,-0.3783,-0.378,-0.3742,-0.3779,-0.3773,-0.3768,-0.3827,-0.3827,-0.3827,0,0,-0.3281,-0.3284,-0.3331,-0.3334,-0.3317,-0.3349,-0.3334,-0.3371,-0.3413,-0.3434,-0.3503,-0.3589,-0.3668,-0.3699,-0.3766,-0.3786,-0.3798,-0.3786,-0.3783,-0.378,-0.3742,-0.3777,-0.3772,-0.3826,-0.3826,-0.3826,0,0,-0.3281,-0.3331,-0.3405,-0.3404,-0.3413,-0.3417,-0.3367,-0.3409,-0.3458,-0.3482,-0.3573,-0.3597,-0.366,-0.3695,-0.3678,-0.375,-0.377,-0.3774,-0.3707,-0.3704,-0.3701,-0.3641,-0.3716,0,0,0,0,0,-0.3351,-0.3324,-0.3392,-0.3401,-0.3445,-0.3404,-0.3402,-0.3432,-0.3465,-0.3439,-0.3543,-0.3561,-0.3726,-0.3712,-0.3721,-0.3706,-0.3813,-0.3815,-0.3817,-0.3738,-0.3735,-0.3731,0,0,0,0,0,0,-0.3355,-0.337,-0.3389,-0.3404,-0.3412,-0.3407,-0.3478,-0.3485,-0.3469,-0.3478,-0.3546,-0.3563,-0.3628,-0.3709,-0.3717,-0.3701,-0.3714,-0.3814,-0.3816,-0.3817,-0.3737,-0.3734,-0.3731,0,0,0,0,0,-0.3357,-0.3369,-0.3453,-0.3402,-0.3409,-0.3437,-0.3481,-0.3487,-0.3478,-0.3554,-0.357,-0.35,-0.3625,-0.3638,-0.3714,-0.3697,-0.3708,-0.3711,-0.3815,-0.3817,-0.3818,-0.3736,0,0,0,0,0,0,-0.3359,-0.3364,-0.3452,-0.3452,-0.3427,-0.3436,-0.3448,-0.3489,-0.3559,-0.357,-0.3516,-0.3522,-0.3622,-0.3633,-0.3643,-0.3693,-0.3704,-0.3707,-0.3709,-0.3816,-0.3817,-0.3818,0,0,0,0,0,0,-0.3356,-0.3364,-0.3452,-0.3483,-0.3487,-0.3436,-0.3446,-0.3469,-0.3562,-0.3519,-0.3524,-0.3518,-0.3634,-0.3629,-0.3637,-0.3667,-0.37,-0.3703,-0.3705,-0.3706,-0.3817,-0.3818,0,0,0,0,0,0,-0.3358,-0.3365,-0.3484,-0.3486,-0.349,-0.3489,-0.3458,-0.3522,-0.3528,-0.3517,-0.3535,-0.3539,-0.363,-0.3638,-0.3632,-0.3658,-0.3665,-0.37,-0.3702,-0.3704,-0.3705,0,0,0,0,0,0,0,-0.336,-0.3331,-0.3451,-0.3489,-0.3492,-0.3447,-0.3447,-0.3448,-0.3528,-0.3531,-0.3534,-0.3537,-0.3684,-0.3687,-0.369,-0.3651,0,0,-0.37,-0.3702,0,0,0,0,0,0,0,0,-0.3326,-0.3329,-0.3451,-0.3451,-0.3451,-0.3447,-0.3447,-0.3448,-0.3529,-0.3531,-0.3534,-0.3536,-0.3685,-0.3687,-0.369,0,0,0,0,0,0,0,0,0,0,0,0,0,0,0,-0.3451,-0.3451,0,-0.3447,-0.3447,-0.3448,-0.3529,-0.3531,-0.3533,-0.3535,-0.3685,-0.3687,-0.369,0,0,0,0,0,0,0,0,0,0,0,0,0,0,0,0,0,0,0,0,0,0,0,0,0,0,0,0,0,0,0,0,0,0,0,0,0,0,0,0,0,0,0,0,0,0,0,0,0,0,0,0,0,0,0,0,0,0,0,0,0,0,0,0,0,0,0,0,0]}]],[[{"header":{"parameterUnit":"kt","parameterCategory":2,"dx":1,"dy":1,"la1":30.253999710083008,"la2":30.299108505249023,"lo1":-89.0895004272461,"lo2":-89.04439544677734,"nx":28,"ny":28,"refTime":"2022-09-21T21:00:00:Z","depth":"2","parameterNumber":2,"parameterNumberName":"U-component_of_CURRENTS"},"data":[0.0283,0.0298,0.0304,0.0462,0.064,0.0826,0.0889,0.0792,0.0779,0.0679,0.07,0.0669,0.0949,0.0868,0.098,0.1126,0.1221,0.1115,0.1827,0.116,0.1182,0.1298,0.1018,0,0,0,0,0,0.0242,0.0256,0.0365,0.0514,0.0661,0.084,0.0984,0.0998,0.1041,0.121,0.1268,0.1102,0.1089,0.1457,0.1592,0.1755,0.1493,0.1848,0.1305,0.1322,0.134,0.1157,0.1154,0.1156,0.1158,0.116,0,0,0.0209,0.0245,0.0349,0.0502,0.0676,0.0838,0.095,0.1137,0.1294,0.1464,0.1696,0.173,0.1822,0.1957,0.2132,0.2339,0.2348,0.2107,0.2092,0.2085,0.1958,0.194,0.2156,0.2163,0.2169,0.2174,0.2178,0,0.0168,0.023,0.0329,0.0503,0.0682,0.0877,0.1127,0.124,0.152,0.1678,0.1924,0.2022,0.2393,0.2303,0.2579,0.2493,0.2347,0.2351,0.2833,0.1352,0.1308,0.1242,0.1226,0.1427,0.143,0.1432,0.1433,0.1434,0.0103,0.0191,0.041,0.0502,0.062,0.0843,0.0997,0.1233,0.1391,0.1744,0.1863,0.2215,0.2317,0.2666,0.2636,0.2707,0.2695,0.239,0.2002,0.2354,0.2302,0.2255,0.2212,0.1464,0.146,0.1457,0.1455,0,0.0091,0.0176,0.0349,0.0563,0.0647,0.0784,0.1048,0.1197,0.1381,0.1606,0.1691,0.191,0.2162,0.2211,0.2292,0.2235,0.2313,0.2353,0.1825,0.1763,0.2176,0.2144,0.2623,0.2634,0.2644,0.2652,0.2658,0,0.0101,0.0208,0.0397,0.0445,0.0632,0.074,0.0948,0.1053,0.125,0.1414,0.1486,0.165,0.1655,0.181,0.173,0.1923,0.1881,0.1809,0.1808,0.128,0.1253,0.1291,0.1253,0.1587,0.1584,0.1581,0.1579,0,0.0071,0.0262,0.0367,0.0383,0.0557,0.0663,0.0756,0.0895,0.1002,0.1199,0.1322,0.1432,0.1532,0.1537,0.1536,0.1392,0.1702,0.1462,0.165,0.1664,0.1207,0.1175,0.1576,0.1575,0.1575,0.1574,0.1573,0,0.0066,0.0174,0.0317,0.0457,0.0504,0.0582,0.0709,0.0786,0.0931,0.0997,0.1104,0.1107,0.1219,0.1065,0.12,0.1115,0.1105,0.1074,0.1084,0.1225,0.1085,0.0895,0.1112,0.1155,0.115,0.1146,0.1142,0,-0.0058,0.0118,0.0148,0.0293,0.0384,0.0415,0.046,0.058,0.0637,0.0739,0.0754,0.0803,0.0687,0.0736,0.0773,0.0753,0.0848,0.0675,0.0809,0.0815,0.0998,0.1302,0.0759,0.1051,0.1087,0.1093,0.1097,0,-0.0193,-0.0038,-0.003,0.004,0.0122,0.0211,0.0304,0.0399,0.0493,0.0541,0.0621,0.0569,0.0603,0.0563,0.0495,0.0539,0.0754,0.0476,0.0474,0.0644,0.0996,0.1199,0.1256,0.0685,0.069,0.0695,0.1053,0,-0.0296,-0.0233,-0.0137,-0.0044,0.0008,0.0146,0.0174,0.027,0.0285,0.0288,0.0381,0.0309,0.0297,0.027,0.018,0.0314,0.0329,0.0211,0.0148,0.0291,0.0426,0.0462,-0.0016,-0.002,-0.0023,-0.0026,0,0,-0.0495,-0.0401,-0.0365,-0.0258,-0.0241,-0.0165,-0.0055,-0.0026,0.0047,0.0088,0.0048,0.0019,-0.0034,-0.0002,0.0026,-0.0011,0.0058,0.0022,0.0195,0.022,0.0243,0.038,0.0418,-0.0032,-0.0033,-0.0034,-0.0035,0,-0.0542,-0.0548,-0.0426,-0.0396,-0.0242,-0.0245,-0.0175,-0.0102,-0.0076,-0.0018,-0.0106,-0.0071,-0.0113,-0.0152,-0.0191,-0.0062,-0.0057,-0.006,0.0103,0.0164,0.0193,0.0219,0.036,0.0397,-0.0043,-0.0043,-0.0042,0,-0.0702,-0.0664,-0.0639,-0.0559,-0.0499,-0.0432,-0.0477,-0.0296,-0.026,-0.036,-0.0312,-0.0336,-0.0417,-0.0357,-0.0321,-0.0364,-0.0152,-0.0266,-0.025,-0.0214,-0.0156,-0.0122,-0.0093,-0.0465,-0.0466,-0.0466,0,0,-0.0733,-0.0674,-0.0649,-0.0572,-0.0523,-0.0507,-0.0468,-0.0413,-0.0387,-0.0367,-0.0408,-0.0426,-0.0451,-0.0421,-0.0433,-0.0357,-0.0336,-0.031,-0.029,-0.0273,-0.0228,-0.0165,-0.0134,-0.0469,-0.0469,-0.0469,0,0,-0.0746,-0.0719,-0.0735,-0.067,-0.0601,-0.0591,-0.0511,-0.0529,-0.0494,-0.0434,-0.0549,-0.0548,-0.0463,-0.0502,-0.053,-0.044,-0.0534,-0.0528,-0.0384,-0.036,-0.0341,-0.0285,-0.0619,0,0,0,0,0,-0.0781,-0.0723,-0.0738,-0.0727,-0.0691,-0.0595,-0.059,-0.0588,-0.0608,-0.0535,-0.0559,-0.0595,-0.0547,-0.0573,-0.0569,-0.0485,-0.0501,-0.0495,-0.049,-0.0289,-0.0264,-0.0242,0,0,0,0,0,0,-0.0776,-0.0763,-0.0739,-0.0731,-0.0722,-0.0601,-0.0689,-0.0689,-0.0613,-0.0611,-0.0599,-0.0599,-0.0654,-0.0577,-0.0573,-0.0492,-0.062,-0.0499,-0.0494,-0.0489,-0.0281,-0.026,-0.0242,0,0,0,0,0,-0.0772,-0.0762,-0.0698,-0.0733,-0.0726,-0.0709,-0.069,-0.0689,-0.0621,-0.0666,-0.0663,-0.0605,-0.0655,-0.0649,-0.0575,-0.0493,-0.0623,-0.0622,-0.0495,-0.0492,-0.0488,-0.027,0,0,0,0,0,0,-0.077,-0.0785,-0.0697,-0.0695,-0.0729,-0.0713,-0.0708,-0.069,-0.068,-0.0676,-0.0683,-0.0683,-0.0655,-0.0651,-0.0646,-0.0489,-0.0626,-0.0624,-0.0623,-0.0493,-0.049,-0.0487,0,0,0,0,0,0,-0.079,-0.0784,-0.0697,-0.0691,-0.0689,-0.0716,-0.0711,-0.0693,-0.0679,-0.07,-0.0699,-0.0683,-0.0642,-0.0652,-0.0649,-0.0623,-0.0628,-0.0626,-0.0625,-0.0624,-0.049,-0.0488,0,0,0,0,0,0,-0.0788,-0.0783,-0.0693,-0.0691,-0.069,-0.0679,-0.07,-0.0657,-0.0692,-0.0701,-0.0691,-0.0691,-0.0641,-0.0639,-0.065,-0.0626,-0.0624,-0.0628,-0.0627,-0.0626,-0.0625,0,0,0,0,0,0,0,-0.0786,-0.0814,-0.0695,-0.0691,-0.069,-0.0677,-0.0678,-0.0678,-0.0692,-0.0692,-0.0691,-0.0691,-0.0637,-0.0636,-0.0634,-0.0629,0,0,-0.0628,-0.0627,0,0,0,0,0,0,0,0,-0.0816,-0.0814,-0.0695,-0.0694,-0.0692,-0.0677,-0.0678,-0.0678,-0.0692,-0.0692,-0.0692,-0.0691,-0.0637,-0.0635,-0.0634,0,0,0,0,0,0,0,0,0,0,0,0,0,0,0,-0.0694,-0.0694,0,-0.0677,-0.0678,-0.0678,-0.0692,-0.0692,-0.0692,-0.0691,-0.0637,-0.0635,-0.0634,0,0,0,0,0,0,0,0,0,0,0,0,0,0,0,0,0,0,0,0,0,0,0,0,0,0,0,0,0,0,0,0,0,0,0,0,0,0,0,0,0,0,0,0,0,0,0,0,0,0,0,0,0,0,0,0,0,0,0,0,0,0,0,0,0,0,0,0,0]}],[{"header":{"parameterUnit":"kt","parameterCategory":2,"dx":1,"dy":1,"la1":30.253999710083008,"la2":30.299108505249023,"lo1":-89.0895004272461,"lo2":-89.04439544677734,"nx":28,"ny":28,"refTime":"2022-09-21T21:00:00:Z","depth":"2","parameterNumber":3,"parameterNumberName":"V-component_of_CURRENTS"},"data":[0.2417,0.2641,0.2782,0.2835,0.2796,0.271,0.2725,0.2867,0.2853,0.2612,0.2206,0.1591,0.1065,0.0482,0.0202,0.0152,0.0193,0.017,0.0478,0.0376,0.0387,0.0109,0.0152,0,0,0,0,0,0.2401,0.2564,0.276,0.2896,0.2944,0.2946,0.3122,0.3082,0.3102,0.2904,0.2742,0.1807,0.1313,0.0791,0.0412,0.0211,0.0176,0.0132,0.0003,0.0011,0.0019,0.0039,-0.0065,-0.0066,-0.0066,-0.0067,0,0,0.2384,0.2498,0.2622,0.2801,0.293,0.3018,0.3032,0.3097,0.3109,0.2867,0.2837,0.2491,0.1818,0.1032,0.0743,0.0488,0.0556,0.0293,0.029,0.0289,0.0327,0.0401,0.0299,0.03,0.0301,0.0303,0.0304,0,0.237,0.2405,0.2484,0.2663,0.2766,0.2858,0.291,0.2924,0.2786,0.2739,0.2671,0.2574,0.2119,0.1628,0.1082,0.0845,0.0433,0.0372,0.0494,0.0208,0.0276,0.0267,0.0282,0.0142,0.0143,0.0144,0.0144,0.0144,0.2332,0.237,0.2457,0.2543,0.2541,0.2624,0.2676,0.2592,0.2575,0.2383,0.2377,0.212,0.1999,0.1543,0.1096,0.0696,0.0623,0.0385,0.0341,0.0524,0.0514,0.0524,0.0534,0.0152,0.0151,0.015,0.0149,0,0.2342,0.2299,0.2361,0.237,0.2396,0.2466,0.2476,0.2481,0.2324,0.2249,0.2192,0.1944,0.1696,0.1318,0.0962,0.077,0.0519,0.046,0.0406,0.0383,0.0515,0.0528,0.0421,0.0424,0.0426,0.0427,0.0429,0,0.2203,0.2288,0.218,0.2259,0.236,0.2288,0.2323,0.2255,0.2124,0.2079,0.1826,0.1759,0.1364,0.1149,0.0901,0.0669,0.0606,0.0508,0.0488,0.0389,0.0392,0.0467,0.048,0.0356,0.0356,0.0357,0.0358,0,0.2038,0.2052,0.2095,0.2172,0.213,0.2139,0.2139,0.2008,0.1974,0.1796,0.1726,0.1488,0.1375,0.1133,0.0856,0.0844,0.0579,0.0543,0.0511,0.0518,0.0398,0.0402,0.0358,0.0359,0.0359,0.0359,0.0359,0,0.1868,0.1828,0.1866,0.1941,0.1943,0.1969,0.1988,0.196,0.1786,0.1696,0.1532,0.139,0.1211,0.1112,0.0839,0.089,0.0756,0.0645,0.0638,0.0735,0.0744,0.0594,0.0463,0.0594,0.0596,0.0598,0.0599,0,0.1846,0.1766,0.1716,0.1792,0.1797,0.1758,0.1758,0.1673,0.1567,0.1504,0.1321,0.1264,0.1142,0.1091,0.0962,0.0837,0.0744,0.0816,0.0677,0.0675,0.0798,0.0697,0.0579,0.0494,0.0623,0.062,0.0618,0,0.1859,0.1677,0.172,0.1731,0.1666,0.1642,0.1562,0.1526,0.1482,0.1342,0.1344,0.1203,0.11,0.1084,0.101,0.0911,0.0786,0.088,0.0876,0.0881,0.0621,0.0719,0.0713,0.0734,0.0731,0.0729,0.0637,0,0.1848,0.1848,0.1742,0.1623,0.1608,0.1567,0.1495,0.1412,0.133,0.1308,0.12,0.111,0.108,0.1026,0.1023,0.0924,0.0935,0.0913,0.0965,0.0879,0.085,0.0835,0.1019,0.1019,0.102,0.1021,0,0,0.2006,0.1915,0.1764,0.1674,0.1718,0.1526,0.1518,0.1443,0.1337,0.1313,0.1259,0.1174,0.1126,0.1094,0.1052,0.1024,0.0994,0.1078,0.0917,0.0905,0.0895,0.0864,0.0849,0.1022,0.1022,0.1022,0.1022,0,0.1993,0.1959,0.1814,0.181,0.1603,0.1574,0.1513,0.1396,0.1346,0.13,0.126,0.1163,0.116,0.1136,0.1134,0.104,0.1056,0.102,0.1016,0.0925,0.0912,0.0901,0.0869,0.0855,0.1024,0.1024,0.1024,0,0.2126,0.1998,0.1974,0.1848,0.172,0.1691,0.1629,0.1455,0.1454,0.1421,0.1364,0.1306,0.1296,0.1243,0.1202,0.1227,0.1113,0.1158,0.1153,0.1177,0.1086,0.1071,0.1058,0.1235,0.1236,0.1236,0,0,0.21,0.2005,0.1934,0.1843,0.1776,0.1676,0.1622,0.1554,0.1464,0.1421,0.1407,0.135,0.1324,0.1292,0.1264,0.1218,0.1203,0.1187,0.1177,0.1169,0.1188,0.1096,0.1081,0.124,0.124,0.124,0,0,0.2083,0.1961,0.1929,0.1872,0.1779,0.1688,0.1597,0.1577,0.1501,0.1419,0.1447,0.1434,0.1341,0.1339,0.1386,0.1289,0.1324,0.1315,0.1315,0.1302,0.1292,0.1329,0.1442,0,0,0,0,0,0.1997,0.1977,0.1949,0.1925,0.1812,0.1711,0.1699,0.1625,0.1564,0.1531,0.1463,0.1484,0.1359,0.1402,0.1399,0.1371,0.1288,0.128,0.1272,0.1258,0.1245,0.1234,0,0,0,0,0,0,0.1986,0.1958,0.1949,0.1857,0.1829,0.1714,0.1691,0.1674,0.1566,0.1553,0.1497,0.1487,0.1506,0.1406,0.1403,0.1375,0.1443,0.1285,0.1278,0.1271,0.1254,0.1243,0.1234,0,0,0,0,0,0.1977,0.1955,0.1781,0.1858,0.1834,0.1729,0.169,0.1674,0.1584,0.1574,0.1559,0.1512,0.151,0.15,0.1404,0.1376,0.1446,0.1444,0.128,0.1275,0.127,0.1248,0,0,0,0,0,0,0.1971,0.1977,0.1776,0.1767,0.1829,0.1733,0.1713,0.1675,0.161,0.1592,0.1599,0.1591,0.1513,0.1505,0.1498,0.1375,0.1448,0.1446,0.1445,0.1276,0.1272,0.1268,0,0,0,0,0,0,0.1987,0.197,0.1772,0.174,0.1728,0.1736,0.1718,0.1712,0.1611,0.1643,0.1631,0.1596,0.1505,0.1508,0.1503,0.15,0.1449,0.1448,0.1447,0.1446,0.1272,0.1269,0,0,0,0,0,0,0.1979,0.1965,0.1743,0.1734,0.1723,0.163,0.1732,0.1619,0.1582,0.1649,0.1574,0.157,0.1509,0.1503,0.1506,0.1507,0.1502,0.1449,0.1448,0.1448,0.1447,0,0,0,0,0,0,0,0.1973,0.2077,0.1809,0.1728,0.1719,0.1681,0.168,0.168,0.1581,0.1578,0.1575,0.1571,0.1457,0.1456,0.1454,0.1512,0,0,0.1449,0.1449,0,0,0,0,0,0,0,0,0.2082,0.2078,0.1809,0.1806,0.1803,0.168,0.168,0.168,0.1581,0.1578,0.1575,0.1573,0.1457,0.1456,0.1454,0,0,0,0,0,0,0,0,0,0,0,0,0,0,0,0.1809,0.1806,0,0.168,0.168,0.168,0.158,0.1578,0.1576,0.1574,0.1456,0.1455,0.1454,0,0,0,0,0,0,0,0,0,0,0,0,0,0,0,0,0,0,0,0,0,0,0,0,0,0,0,0,0,0,0,0,0,0,0,0,0,0,0,0,0,0,0,0,0,0,0,0,0,0,0,0,0,0,0,0,0,0,0,0,0,0,0,0,0,0,0,0,0]}]],[[{"header":{"parameterUnit":"kt","parameterCategory":2,"dx":1,"dy":1,"la1":30.253999710083008,"la2":30.299108505249023,"lo1":-89.0895004272461,"lo2":-89.04439544677734,"nx":28,"ny":28,"refTime":"2022-09-21T21:00:00:Z","depth":"4","parameterNumber":2,"parameterNumberName":"U-component_of_CURRENTS"},"data":[-0.0267,-0.0233,-0.0203,-0.0117,-0.0079,-0.0032,-0.0015,-0.002,0.0055,0.0063,0.0065,0.0074,0.0058,0.0047,0.0052,0.0043,-0.0297,-0.0033,-0.0032,-0.068,-0.072,-0.0756,-0.0861,0,0,0,0,0,-0.0281,-0.0239,-0.0216,-0.0181,-0.0142,-0.0135,-0.0103,-0.0162,-0.0159,0.0009,-0.0107,0.0044,0.0051,0.0032,0.0044,-0.0035,-0.0379,-0.002,-0.0572,-0.0705,-0.075,-0.0836,0,0,0,0,0,0,-0.0291,-0.0271,-0.0241,-0.0243,-0.0221,-0.017,-0.0246,-0.019,-0.0256,-0.0301,-0.0128,-0.0175,-0.0213,-0.0227,-0.0106,-0.0132,-0.0344,-0.0479,-0.0533,-0.0578,-0.0602,-0.039,0.0103,0,0,0,0,0,-0.0281,-0.0297,-0.0272,-0.0254,-0.0292,-0.0309,-0.0392,-0.04,-0.0552,-0.0675,-0.0513,-0.0537,-0.0387,-0.0501,-0.039,-0.0432,-0.0937,-0.0721,-0.0756,-0.1221,-0.1098,-0.1073,-0.1104,-0.092,-0.0925,-0.0929,-0.0931,0,-0.0322,-0.0294,-0.0286,-0.0282,-0.0322,-0.0461,-0.0524,-0.0766,-0.0801,-0.0892,-0.0832,-0.0874,-0.0938,-0.0707,-0.0884,-0.0883,-0.0914,-0.083,-0.1324,-0.1171,-0.1131,-0.1153,-0.1171,-0.0967,-0.0964,-0.0961,-0.0958,0,-0.0351,-0.0326,-0.0289,-0.033,-0.0357,-0.0456,-0.0647,-0.0739,-0.1012,-0.1079,-0.1195,-0.1369,-0.1347,-0.1418,-0.1487,-0.149,-0.1424,-0.1283,-0.1503,-0.1462,-0.1233,-0.1237,-0.1026,-0.1013,-0.1002,-0.0993,-0.0985,0,-0.0382,-0.0352,-0.0369,-0.0345,-0.0382,-0.0497,-0.0641,-0.0804,-0.1036,-0.1087,-0.1451,-0.1469,-0.1837,-0.1767,-0.1865,-0.1707,-0.1857,-0.1754,-0.1689,-0.2126,-0.2125,-0.2031,-0.2019,-0.2159,-0.2162,-0.2164,-0.2166,0,-0.0449,-0.0417,-0.0374,-0.0368,-0.0411,-0.0486,-0.0592,-0.0801,-0.0902,-0.1237,-0.1343,-0.164,-0.1804,-0.1936,-0.1968,-0.212,-0.1951,-0.215,-0.1792,-0.176,-0.204,-0.2025,-0.2169,-0.2169,-0.217,-0.2171,-0.2172,0,-0.0505,-0.0468,-0.043,-0.0441,-0.0445,-0.0503,-0.063,-0.0732,-0.0965,-0.1117,-0.1394,-0.1556,-0.1835,-0.1938,-0.2101,-0.2147,-0.216,-0.2174,-0.2164,-0.178,-0.1692,-0.1805,-0.1937,-0.1937,-0.1938,-0.1938,-0.1939,0,-0.0541,-0.0496,-0.0514,-0.05,-0.047,-0.0553,-0.0624,-0.0748,-0.0892,-0.1056,-0.1294,-0.1518,-0.1675,-0.1886,-0.202,-0.2118,-0.2151,-0.2202,-0.2022,-0.2011,-0.1724,-0.178,-0.2266,-0.1945,-0.1944,-0.1943,-0.1943,0,-0.0577,-0.0551,-0.0555,-0.0538,-0.0577,-0.0599,-0.067,-0.0761,-0.0855,-0.1048,-0.1193,-0.1486,-0.1669,-0.1744,-0.1909,-0.2017,-0.2133,-0.2044,-0.2042,-0.1907,-0.2137,-0.1818,-0.1781,-0.2251,-0.2254,-0.2256,-0.1947,0,-0.0589,-0.058,-0.0574,-0.0577,-0.061,-0.0616,-0.0684,-0.0766,-0.0875,-0.0971,-0.1188,-0.1352,-0.1543,-0.1644,-0.1721,-0.1928,-0.1827,-0.1865,-0.1808,-0.1937,-0.1768,-0.1766,-0.173,-0.1725,-0.1722,-0.1719,0,0,-0.0617,-0.0585,-0.0613,-0.0614,-0.0623,-0.0698,-0.0701,-0.0758,-0.0871,-0.0939,-0.0989,-0.126,-0.1353,-0.1541,-0.1644,-0.1656,-0.1613,-0.1694,-0.1864,-0.1881,-0.1896,-0.1746,-0.1748,-0.1713,-0.1711,-0.171,-0.1709,0,-0.0603,-0.0605,-0.0599,-0.0619,-0.0668,-0.0693,-0.0719,-0.0794,-0.0844,-0.0951,-0.1014,-0.1183,-0.1296,-0.1395,-0.1454,-0.16,-0.1553,-0.1656,-0.1775,-0.1834,-0.1856,-0.1874,-0.1732,-0.1736,-0.1701,-0.1701,-0.1701,0,-0.0606,-0.0615,-0.0615,-0.0641,-0.0665,-0.068,-0.0729,-0.078,-0.0818,-0.0872,-0.0958,-0.1061,-0.112,-0.1256,-0.1316,-0.1288,-0.1468,-0.1462,-0.1478,-0.1437,-0.149,-0.1515,-0.1537,-0.125,-0.125,-0.1249,0,0,-0.0603,-0.0598,-0.0632,-0.0642,-0.065,-0.0709,-0.0742,-0.0783,-0.0835,-0.0864,-0.0932,-0.1001,-0.1086,-0.1151,-0.1186,-0.1312,-0.1234,-0.1415,-0.1436,-0.1454,-0.1424,-0.1481,-0.1505,-0.1246,-0.1246,-0.1246,0,0,-0.0607,-0.062,-0.0634,-0.0637,-0.0679,-0.0723,-0.0743,-0.0796,-0.0855,-0.0872,-0.092,-0.0935,-0.1056,-0.1054,-0.1011,-0.1234,-0.1133,-0.1143,-0.1287,-0.1313,-0.1333,-0.129,-0.1013,0,0,0,0,0,-0.0617,-0.0612,-0.0625,-0.0632,-0.067,-0.0711,-0.0721,-0.0769,-0.0807,-0.0825,-0.0881,-0.0898,-0.1038,-0.1,-0.1015,-0.1164,-0.121,-0.1217,-0.1223,-0.1431,-0.1459,-0.1482,0,0,0,0,0,0,-0.0619,-0.0622,-0.0627,-0.0662,-0.0674,-0.0709,-0.0726,-0.0739,-0.0804,-0.0811,-0.0886,-0.0898,-0.0911,-0.0994,-0.1008,-0.115,-0.1008,-0.1213,-0.1218,-0.1223,-0.1441,-0.1463,-0.1482,0,0,0,0,0,-0.0622,-0.0624,-0.0665,-0.0664,-0.0674,-0.0739,-0.0726,-0.0737,-0.0794,-0.0837,-0.0852,-0.0835,-0.0909,-0.0926,-0.1002,-0.1145,-0.0999,-0.1004,-0.1216,-0.1221,-0.1224,-0.1452,0,0,0,0,0,0,-0.0624,-0.0634,-0.0669,-0.0677,-0.067,-0.074,-0.0747,-0.0735,-0.0818,-0.0832,-0.0783,-0.0787,-0.0908,-0.0921,-0.0933,-0.1146,-0.0991,-0.0996,-0.1,-0.122,-0.1223,-0.1226,0,0,0,0,0,0,-0.0634,-0.0638,-0.0673,-0.0676,-0.0684,-0.074,-0.0746,-0.0795,-0.0819,-0.0759,-0.0764,-0.0784,-0.0905,-0.0918,-0.0927,-0.1002,-0.0986,-0.099,-0.0994,-0.0996,-0.1222,-0.1225,0,0,0,0,0,0,-0.0638,-0.0642,-0.0674,-0.068,-0.0687,-0.0765,-0.0787,-0.083,-0.0803,-0.0754,-0.0805,-0.0806,-0.0902,-0.0912,-0.0923,-0.0993,-0.0999,-0.0986,-0.0989,-0.0991,-0.0993,0,0,0,0,0,0,0,-0.0641,-0.0591,-0.0634,-0.0683,-0.0689,-0.0744,-0.0745,-0.0746,-0.0803,-0.0804,-0.0805,-0.0805,-0.0958,-0.0963,-0.0969,-0.0985,0,0,-0.0985,-0.0988,0,0,0,0,0,0,0,0,-0.0592,-0.0591,-0.0635,-0.0636,-0.0638,-0.0744,-0.0745,-0.0746,-0.0803,-0.0804,-0.0804,-0.0805,-0.0959,-0.0964,-0.0968,0,0,0,0,0,0,0,0,0,0,0,0,0,0,0,-0.0635,-0.0636,0,-0.0744,-0.0745,-0.0746,-0.0803,-0.0804,-0.0804,-0.0805,-0.0961,-0.0964,-0.0968,0,0,0,0,0,0,0,0,0,0,0,0,0,0,0,0,0,0,0,0,0,0,0,0,0,0,0,0,0,0,0,0,0,0,0,0,0,0,0,0,0,0,0,0,0,0,0,0,0,0,0,0,0,0,0,0,0,0,0,0,0,0,0,0,0,0,0,0,0]}],[{"header":{"parameterUnit":"kt","parameterCategory":2,"dx":1,"dy":1,"la1":30.253999710083008,"la2":30.299108505249023,"lo1":-89.0895004272461,"lo2":-89.04439544677734,"nx":28,"ny":28,"refTime":"2022-09-21T21:00:00:Z","depth":"4","parameterNumber":3,"parameterNumberName":"V-component_of_CURRENTS"},"data":[-0.0672,-0.0749,-0.0768,-0.0853,-0.0901,-0.1014,-0.1034,-0.1013,-0.0917,-0.0899,-0.0858,-0.0881,-0.0825,-0.0888,-0.0783,-0.0782,-0.071,-0.0798,-0.0796,-0.0698,-0.0698,-0.0698,-0.0707,0,0,0,0,0,-0.0676,-0.0693,-0.0806,-0.0925,-0.1062,-0.1115,-0.1157,-0.1177,-0.1151,-0.1014,-0.1064,-0.0939,-0.0881,-0.0864,-0.0808,-0.0872,-0.0787,-0.0805,-0.072,-0.0698,-0.0698,-0.0707,0,0,0,0,0,0,-0.0692,-0.0747,-0.0866,-0.0978,-0.1126,-0.1161,-0.1215,-0.118,-0.1206,-0.1159,-0.1085,-0.1047,-0.1024,-0.0954,-0.0924,-0.0896,-0.0771,-0.0709,-0.0709,-0.0708,-0.0717,-0.0807,-0.0717,0,0,0,0,0,-0.069,-0.0762,-0.0862,-0.1011,-0.1137,-0.1235,-0.1318,-0.1303,-0.1355,-0.141,-0.1262,-0.1198,-0.1085,-0.0979,-0.1,-0.0879,-0.0896,-0.0864,-0.0858,-0.0702,-0.0772,-0.0759,-0.0765,-0.0698,-0.0698,-0.0698,-0.0698,0,-0.0665,-0.0744,-0.0929,-0.101,-0.1123,-0.1285,-0.1369,-0.1494,-0.1502,-0.1512,-0.1432,-0.1343,-0.1256,-0.1096,-0.1026,-0.0921,-0.0867,-0.0867,-0.0703,-0.0773,-0.0757,-0.0765,-0.0772,-0.0698,-0.0698,-0.0698,-0.0698,0,-0.0634,-0.0747,-0.0894,-0.1083,-0.1141,-0.1257,-0.1425,-0.1511,-0.1594,-0.1594,-0.1547,-0.1479,-0.1301,-0.1275,-0.1063,-0.0997,-0.0873,-0.0832,-0.0958,-0.0942,-0.0768,-0.0775,-0.0697,-0.0697,-0.0697,-0.0697,-0.0697,0,-0.0626,-0.073,-0.0899,-0.0978,-0.1125,-0.1247,-0.1408,-0.1489,-0.1597,-0.1615,-0.1593,-0.1513,-0.1355,-0.1273,-0.1124,-0.0962,-0.0951,-0.0779,-0.0755,-0.0776,-0.0784,-0.0732,-0.0735,-0.0705,-0.0705,-0.0705,-0.0706,0,-0.0573,-0.0746,-0.0874,-0.0936,-0.1116,-0.1221,-0.1312,-0.1467,-0.1533,-0.1587,-0.1578,-0.1519,-0.1414,-0.1255,-0.1083,-0.1018,-0.0918,-0.0831,-0.0773,-0.0777,-0.0734,-0.0737,-0.0706,-0.0706,-0.0706,-0.0706,-0.0706,0,-0.0588,-0.0672,-0.0825,-0.0987,-0.1024,-0.1133,-0.1298,-0.139,-0.1515,-0.1544,-0.1548,-0.1493,-0.1395,-0.1286,-0.1108,-0.1102,-0.0971,-0.0893,-0.0889,-0.0863,-0.085,-0.0849,-0.0876,-0.0877,-0.0878,-0.0879,-0.088,0,-0.0533,-0.0665,-0.0734,-0.0882,-0.0958,-0.1043,-0.1146,-0.1256,-0.1329,-0.141,-0.1396,-0.1415,-0.1329,-0.1267,-0.1182,-0.1068,-0.0999,-0.104,-0.0854,-0.0852,-0.0847,-0.0864,-0.0907,-0.0895,-0.0893,-0.0892,-0.0891,0,-0.0484,-0.0634,-0.0655,-0.0731,-0.0846,-0.0892,-0.1007,-0.1121,-0.1208,-0.125,-0.1326,-0.1336,-0.1279,-0.1271,-0.1204,-0.1112,-0.103,-0.0981,-0.0976,-0.0966,-0.0866,-0.0883,-0.0876,-0.0918,-0.0916,-0.0914,-0.0901,0,-0.0516,-0.06,-0.0624,-0.0727,-0.0777,-0.0844,-0.0912,-0.0983,-0.1029,-0.1087,-0.1163,-0.1145,-0.1156,-0.1164,-0.1109,-0.1075,-0.1036,-0.099,-0.0904,-0.0931,-0.093,-0.0923,-0.0995,-0.0994,-0.0992,-0.0992,0,0,-0.0463,-0.0543,-0.0565,-0.0628,-0.0677,-0.0713,-0.0783,-0.0836,-0.0915,-0.0965,-0.0939,-0.102,-0.1014,-0.1054,-0.1047,-0.1061,-0.099,-0.0969,-0.094,-0.0935,-0.093,-0.0928,-0.0922,-0.099,-0.0989,-0.0989,-0.0988,0,-0.0466,-0.0505,-0.0548,-0.0598,-0.0659,-0.0695,-0.0717,-0.0781,-0.082,-0.0902,-0.0904,-0.0932,-0.096,-0.0963,-0.0965,-0.1039,-0.0943,-0.1023,-0.1009,-0.0934,-0.093,-0.0926,-0.0925,-0.092,-0.0986,-0.0986,-0.0986,0,-0.0448,-0.0487,-0.0512,-0.0579,-0.061,-0.067,-0.0658,-0.0711,-0.0779,-0.0748,-0.0835,-0.0842,-0.084,-0.0877,-0.0892,-0.0845,-0.0864,-0.0882,-0.0888,-0.0871,-0.0789,-0.0787,-0.0785,-0.0803,-0.0803,-0.0802,0,0,-0.0448,-0.0492,-0.0541,-0.0581,-0.0597,-0.0644,-0.067,-0.0701,-0.0736,-0.0757,-0.0772,-0.0786,-0.0816,-0.0806,-0.0839,-0.0851,-0.0806,-0.0861,-0.0869,-0.0877,-0.0864,-0.0785,-0.0784,-0.0801,-0.08,-0.08,0,0,-0.0438,-0.0498,-0.0521,-0.0566,-0.0609,-0.0648,-0.0668,-0.0698,-0.0742,-0.075,-0.074,-0.0742,-0.0798,-0.0769,-0.0748,-0.0793,-0.0756,-0.0761,-0.08,-0.081,-0.0819,-0.0799,-0.0695,0,0,0,0,0,-0.0464,-0.0492,-0.0512,-0.0525,-0.0599,-0.0644,-0.0655,-0.0679,-0.0689,-0.0715,-0.0738,-0.0705,-0.0755,-0.0736,-0.0738,-0.0754,-0.0776,-0.0781,-0.0785,-0.0843,-0.0854,-0.0864,0,0,0,0,0,0,-0.0469,-0.0485,-0.0511,-0.0551,-0.0567,-0.0643,-0.0635,-0.0644,-0.0686,-0.0688,-0.0706,-0.0705,-0.069,-0.0733,-0.0735,-0.0751,-0.0694,-0.0778,-0.0782,-0.0785,-0.0847,-0.0856,-0.0864,0,0,0,0,0,-0.0473,-0.0486,-0.06,-0.0551,-0.0565,-0.0603,-0.0635,-0.0641,-0.0686,-0.0673,-0.0675,-0.0702,-0.0691,-0.0692,-0.0734,-0.0751,-0.0693,-0.0694,-0.078,-0.0783,-0.0786,-0.0852,0,0,0,0,0,0,-0.0476,-0.0499,-0.0603,-0.0608,-0.0538,-0.06,-0.0611,-0.0639,-0.0668,-0.0672,-0.0664,-0.0665,-0.0691,-0.0692,-0.0693,-0.0752,-0.0691,-0.0692,-0.0693,-0.0783,-0.0785,-0.0787,0,0,0,0,0,0,-0.0492,-0.0503,-0.0606,-0.0588,-0.0592,-0.0597,-0.0607,-0.0619,-0.0667,-0.0658,-0.066,-0.0664,-0.0667,-0.0693,-0.0693,-0.0713,-0.069,-0.0691,-0.0692,-0.0692,-0.0784,-0.0786,0,0,0,0,0,0,-0.0497,-0.0507,-0.0588,-0.059,-0.0593,-0.0655,-0.0606,-0.067,-0.0687,-0.0656,-0.0684,-0.0683,-0.0666,-0.0669,-0.0693,-0.0713,-0.0713,-0.069,-0.0691,-0.0691,-0.0692,0,0,0,0,0,0,0,-0.0501,-0.0431,-0.0568,-0.0592,-0.0595,-0.0653,-0.0655,-0.0657,-0.0687,-0.0686,-0.0685,-0.0684,-0.0685,-0.0686,-0.0687,-0.0713,0,0,-0.069,-0.0691,0,0,0,0,0,0,0,0,-0.0427,-0.043,-0.0568,-0.0569,-0.057,-0.0654,-0.0655,-0.0657,-0.0686,-0.0686,-0.0685,-0.0684,-0.0686,-0.0686,-0.0687,0,0,0,0,0,0,0,0,0,0,0,0,0,0,0,-0.0568,-0.0569,0,-0.0654,-0.0655,-0.0656,-0.0686,-0.0686,-0.0685,-0.0684,-0.0686,-0.0686,-0.0687,0,0,0,0,0,0,0,0,0,0,0,0,0,0,0,0,0,0,0,0,0,0,0,0,0,0,0,0,0,0,0,0,0,0,0,0,0,0,0,0,0,0,0,0,0,0,0,0,0,0,0,0,0,0,0,0,0,0,0,0,0,0,0,0,0,0,0,0,0]}]]]